,,Stat6,,Stat2,,Stat8,,Stat9,,Stat10,,Wind1,,Wind1,
time,status,PA1M_AVG,status,PR1M_SUM,status,RH1M_AVG,status,SR1M_AVG,status,TA1M_AVG,status,W1dAve1m,status,W1sAve1m,
2009-04-24, 07:00:02,VALID,918.241,VALID,0,VALID,100,VALID,69.3667,VALID,19.8388,VALID,334,VALID,0,
2009-04-24, 07:01:00,VALID,918.254,VALID,0,VALID,100,VALID,70.5044,VALID,19.8353,VALID,334,VALID,0,
2009-04-24, 07:02:00,VALID,918.259,VALID,0,VALID,100,VALID,71.3195,VALID,19.8353,VALID,334,VALID,0,
2009-04-24, 07:03:00,VALID,918.271,VALID,0,VALID,100,VALID,72.8308,VALID,19.8453,VALID,334,VALID,0,
2009-04-24, 07:04:00,VALID,918.285,VALID,0,VALID,100,VALID,75.4968,VALID,19.8615,VALID,334,VALID,0,
2009-04-24, 07:05:00,VALID,918.292,VALID,0,VALID,100,VALID,76.7364,VALID,19.8745,VALID,350,VALID,0,
2009-04-24, 07:06:00,VALID,918.302,VALID,0,VALID,100,VALID,77.5854,VALID,19.8743,VALID,351,VALID,0,
2009-04-24, 07:07:00,VALID,918.287,VALID,0,VALID,100,VALID,77.8571,VALID,19.8872,VALID,351,VALID,0,
2009-04-24, 07:08:00,VALID,918.293,VALID,0,VALID,100,VALID,82.2042,VALID,19.8875,VALID,351,VALID,0,
2009-04-24, 07:09:00,VALID,918.278,VALID,0,VALID,100,VALID,91.204,VALID,19.9067,VALID,351,VALID,0,
2009-04-24, 07:10:00,VALID,918.284,VALID,0,VALID,100,VALID,83.4778,VALID,19.9519,VALID,351,VALID,0,
2009-04-24, 07:11:00,VALID,918.297,VALID,0,VALID,100,VALID,98.3869,VALID,19.9946,VALID,351,VALID,0,
2009-04-24, 07:12:00,VALID,918.313,VALID,0,VALID,100,VALID,99.202,VALID,20.0233,VALID,351,VALID,0,
2009-04-24, 07:13:00,VALID,918.316,VALID,0,VALID,100,VALID,96.0945,VALID,20.053,VALID,351,VALID,0,
2009-04-24, 07:14:00,VALID,918.325,VALID,0,VALID,100,VALID,106.164,VALID,20.0822,VALID,351,VALID,0,
2009-04-24, 07:15:00,VALID,918.327,VALID,0,VALID,100,VALID,109.917,VALID,20.1211,VALID,351,VALID,0,
2009-04-24, 07:16:00,VALID,918.332,VALID,0,VALID,100,VALID,109.713,VALID,20.225,VALID,351,VALID,0,
2009-04-24, 07:17:00,VALID,918.331,VALID,0,VALID,100,VALID,103.821,VALID,20.3026,VALID,351,VALID,0,
2009-04-24, 07:18:00,VALID,918.331,VALID,0,VALID,100,VALID,124.385,VALID,20.3645,VALID,351,VALID,0,
2009-04-24, 07:19:00,VALID,918.325,VALID,0,VALID,100,VALID,131.296,VALID,20.4229,VALID,351,VALID,0,
2009-04-24, 07:20:00,VALID,918.329,VALID,0,VALID,100,VALID,130.905,VALID,20.4784,VALID,351,VALID,0,
2009-04-24, 07:21:00,VALID,918.316,VALID,0,VALID,100,VALID,123.145,VALID,20.543,VALID,351,VALID,0,
2009-04-24, 07:22:00,VALID,918.33,VALID,0,VALID,100,VALID,115.13,VALID,20.5527,VALID,351,VALID,0,
2009-04-24, 07:23:00,VALID,918.333,VALID,0,VALID,100,VALID,118.017,VALID,20.5525,VALID,351,VALID,0,
2009-04-24, 07:24:00,VALID,918.345,VALID,0,VALID,100,VALID,128.188,VALID,20.5557,VALID,351,VALID,0,
2009-04-24, 07:25:00,VALID,918.357,VALID,0,VALID,100,VALID,118.492,VALID,20.5657,VALID,351,VALID,0,
2009-04-24, 07:26:00,VALID,918.376,VALID,0,VALID,100,VALID,114.383,VALID,20.5852,VALID,351,VALID,0,
2009-04-24, 07:27:00,VALID,918.387,VALID,0,VALID,100,VALID,111.326,VALID,20.6109,VALID,351,VALID,0,
2009-04-24, 07:28:00,VALID,918.403,VALID,0,VALID,100,VALID,125.607,VALID,20.6009,VALID,351,VALID,0,
2009-04-24, 07:29:00,VALID,918.42,VALID,0,VALID,100,VALID,131.279,VALID,20.6009,VALID,351,VALID,0,
2009-04-24, 07:30:00,VALID,918.438,VALID,0,VALID,100,VALID,131.5,VALID,20.6014,VALID,351,VALID,0,
2009-04-24, 07:31:00,VALID,918.457,VALID,0,VALID,100,VALID,152.318,VALID,20.6209,VALID,351,VALID,0,
2009-04-24, 07:32:00,VALID,918.471,VALID,0,VALID,100,VALID,154.933,VALID,20.6728,VALID,351,VALID,0,
2009-04-24, 07:33:00,VALID,918.5,VALID,0,VALID,100,VALID,161.471,VALID,20.7642,VALID,351,VALID,0,
2009-04-24, 07:34:00,VALID,918.507,VALID,0,VALID,100,VALID,160.384,VALID,20.7994,VALID,351,VALID,0,
2009-04-24, 07:35:00,VALID,918.515,VALID,0,VALID,100,VALID,168.042,VALID,20.8713,VALID,351,VALID,0,
2009-04-24, 07:36:00,VALID,918.535,VALID,0,VALID,100,VALID,182.782,VALID,20.9327,VALID,351,VALID,0,
2009-04-24, 07:37:00,VALID,918.546,VALID,0,VALID,100,VALID,181.831,VALID,21.0171,VALID,351,VALID,0,
2009-04-24, 07:38:00,VALID,918.562,VALID,0,VALID,100,VALID,149.805,VALID,21.0923,VALID,351,VALID,0,
2009-04-24, 07:39:00,VALID,918.568,VALID,0,VALID,100,VALID,161.199,VALID,21.1085,VALID,351,VALID,0,
2009-04-24, 07:40:00,VALID,918.586,VALID,0,VALID,99.9863,VALID,203.328,VALID,21.1643,VALID,349,VALID,0,
2009-04-24, 07:41:00,VALID,918.594,VALID,0,VALID,99.2831,VALID,226.864,VALID,21.1283,VALID,274,VALID,0,
2009-04-24, 07:42:00,VALID,918.596,VALID,0,VALID,99.2589,VALID,230.702,VALID,21.1053,VALID,266,VALID,0,
2009-04-24, 07:43:00,VALID,918.594,VALID,0,VALID,99.1597,VALID,244.83,VALID,21.1058,VALID,266,VALID,0,
2009-04-24, 07:44:00,VALID,918.605,VALID,0,VALID,99.2246,VALID,193.904,VALID,21.1286,VALID,266,VALID,0,
2009-04-24, 07:45:00,VALID,918.604,VALID,0,VALID,99.0567,VALID,204.178,VALID,21.138,VALID,266,VALID,0,
2009-04-24, 07:46:00,VALID,918.611,VALID,0,VALID,99.1292,VALID,234.301,VALID,21.148,VALID,266,VALID,0,
2009-04-24, 07:47:00,VALID,918.614,VALID,0,VALID,99.8355,VALID,248.548,VALID,21.2584,VALID,266,VALID,0,
2009-04-24, 07:48:00,VALID,918.615,VALID,0,VALID,99.884,VALID,175.208,VALID,21.395,VALID,266,VALID,0,
2009-04-24, 07:49:00,VALID,918.639,VALID,0,VALID,99.3772,VALID,289.014,VALID,21.411,VALID,275,VALID,0,
2009-04-24, 07:50:00,VALID,918.656,VALID,0,VALID,99.6882,VALID,298.998,VALID,21.5411,VALID,275,VALID,0,
2009-04-24, 07:51:00,VALID,918.657,VALID,0,VALID,99.4354,VALID,303.227,VALID,21.7229,VALID,275,VALID,0,
2009-04-24, 07:52:00,VALID,918.661,VALID,0,VALID,98.7388,VALID,316.76,VALID,21.8219,VALID,275,VALID,0,
2009-04-24, 07:53:00,VALID,918.651,VALID,0,VALID,97.4685,VALID,328.511,VALID,21.8054,VALID,275,VALID,0,
2009-04-24, 07:54:00,VALID,918.676,VALID,0,VALID,97.6262,VALID,335.83,VALID,21.8225,VALID,275,VALID,0,
2009-04-24, 07:55:00,VALID,918.681,VALID,0,VALID,98.5583,VALID,332.077,VALID,21.9356,VALID,288,VALID,0,
2009-04-24, 07:56:00,VALID,918.682,VALID,0,VALID,97.6898,VALID,328.817,VALID,22.0105,VALID,42,VALID,0.0418527,
2009-04-24, 07:57:00,VALID,918.68,VALID,0,VALID,96.8136,VALID,330.973,VALID,21.9356,VALID,49,VALID,0,
2009-04-24, 07:58:00,VALID,918.683,VALID,0,VALID,96.6102,VALID,325.981,VALID,21.9486,VALID,49,VALID,0,
2009-04-24, 07:59:00,VALID,918.672,VALID,0,VALID,96.2897,VALID,337.834,VALID,21.9845,VALID,44,VALID,0.0123047,
2009-04-24, 08:00:00,VALID,918.661,VALID,0,VALID,96.4003,VALID,339.837,VALID,22.0465,VALID,43,VALID,0,
2009-04-24, 08:01:00,VALID,918.674,VALID,0,VALID,95.8599,VALID,339.837,VALID,22.1177,VALID,7,VALID,0.0321801,
2009-04-24, 08:02:00,VALID,918.688,VALID,0,VALID,95.0067,VALID,334.437,VALID,22.089,VALID,322,VALID,0,
2009-04-24, 08:03:00,VALID,918.697,VALID,0,VALID,95.4238,VALID,341.722,VALID,22.0955,VALID,324,VALID,0,
2009-04-24, 08:04:00,VALID,918.717,VALID,0,VALID,95.3475,VALID,303.363,VALID,22.1209,VALID,285,VALID,0,
2009-04-24, 08:05:00,VALID,918.736,VALID,0,VALID,94.8503,VALID,360.011,VALID,22.1177,VALID,283,VALID,0,
2009-04-24, 08:06:00,VALID,918.758,VALID,0,VALID,94.8986,VALID,377.467,VALID,22.1339,VALID,281,VALID,0,
2009-04-24, 08:07:00,VALID,918.779,VALID,0,VALID,94.1992,VALID,384.82,VALID,22.1123,VALID,310,VALID,0,
2009-04-24, 08:08:00,VALID,918.809,VALID,0,VALID,95.7175,VALID,303.906,VALID,22.1575,VALID,18,VALID,0.0296148,
2009-04-24, 08:09:00,VALID,918.828,VALID,0,VALID,94.8897,VALID,375.463,VALID,22.1572,VALID,360,VALID,0,
2009-04-24, 08:10:00,VALID,918.854,VALID,0,VALID,95.5725,VALID,375.548,VALID,22.2259,VALID,22,VALID,0.0124628,
2009-04-24, 08:11:00,VALID,918.858,VALID,0,VALID,94.7714,VALID,384.684,VALID,22.2744,VALID,14,VALID,0.163021,
2009-04-24, 08:12:00,VALID,918.857,VALID,0,VALID,94.8464,VALID,384.599,VALID,22.3039,VALID,356,VALID,0,
2009-04-24, 08:13:00,VALID,918.882,VALID,0,VALID,94.4052,VALID,378.808,VALID,22.3786,VALID,325,VALID,0.0445668,
2009-04-24, 08:14:00,VALID,918.902,VALID,0,VALID,94.8668,VALID,385.074,VALID,22.4411,VALID,19,VALID,0.00246711,
2009-04-24, 08:15:00,VALID,918.912,VALID,0,VALID,94.5654,VALID,391.357,VALID,22.512,VALID,354,VALID,0,
2009-04-24, 08:16:00,VALID,918.919,VALID,0,VALID,94.0301,VALID,400.272,VALID,22.5185,VALID,358,VALID,0.0859375,
2009-04-24, 08:17:00,VALID,918.918,VALID,0,VALID,93.0675,VALID,397.606,VALID,22.4698,VALID,357,VALID,0.353198,
2009-04-24, 08:18:00,VALID,918.907,VALID,0,VALID,93.332,VALID,394.516,VALID,22.4081,VALID,13,VALID,0.396391,
2009-04-24, 08:19:00,VALID,918.896,VALID,0,VALID,94.1178,VALID,393.208,VALID,22.4146,VALID,28,VALID,0.501598,
2009-04-24, 08:20:00,VALID,918.899,VALID,0,VALID,94.9863,VALID,396.044,VALID,22.5315,VALID,5,VALID,0,
2009-04-24, 08:21:00,VALID,918.912,VALID,0,VALID,94.6633,VALID,399.304,VALID,22.6392,VALID,30,VALID,0.000952744,
2009-04-24, 08:22:00,VALID,918.905,VALID,0,VALID,94.6684,VALID,399.219,VALID,22.7792,VALID,32,VALID,0,
2009-04-24, 08:23:00,VALID,918.925,VALID,0,VALID,93.0878,VALID,417.847,VALID,22.8692,VALID,8,VALID,0,
2009-04-24, 08:24:00,VALID,918.934,VALID,0,VALID,92.5258,VALID,410.138,VALID,22.8084,VALID,336,VALID,0,
2009-04-24, 08:25:00,VALID,918.935,VALID,0,VALID,93.1056,VALID,296.417,VALID,22.8468,VALID,313,VALID,0,
2009-04-24, 08:26:00,VALID,918.927,VALID,0,VALID,93.0382,VALID,421.091,VALID,22.8864,VALID,296,VALID,0,
2009-04-24, 08:27:00,VALID,918.926,VALID,0,VALID,93.0319,VALID,443.454,VALID,22.8341,VALID,28,VALID,0.182413,
2009-04-24, 08:28:00,VALID,918.95,VALID,0,VALID,93.0077,VALID,467.448,VALID,22.7461,VALID,5,VALID,0.187891,
2009-04-24, 08:29:00,VALID,918.961,VALID,0,VALID,92.733,VALID,479.946,VALID,22.7464,VALID,25,VALID,0.649182,
2009-04-24, 08:30:00,VALID,918.98,VALID,0,VALID,92.3376,VALID,492.563,VALID,22.6977,VALID,15,VALID,0.884266,
2009-04-24, 08:31:00,VALID,919.02,VALID,0,VALID,93.112,VALID,482.833,VALID,22.773,VALID,358,VALID,0.242733,
2009-04-24, 08:32:00,VALID,919.032,VALID,0,VALID,92.9746,VALID,405.723,VALID,22.8385,VALID,22,VALID,0.000381098,
2009-04-24, 08:33:00,VALID,919.057,VALID,0,VALID,92.8971,VALID,419.698,VALID,22.9457,VALID,325,VALID,0.0619141,
2009-04-24, 08:34:00,VALID,919.068,VALID,0,VALID,91.8633,VALID,395.28,VALID,22.9389,VALID,349,VALID,0,
2009-04-24, 08:35:00,VALID,919.069,VALID,0,VALID,92.4851,VALID,279.487,VALID,22.9132,VALID,1,VALID,0.00186012,
2009-04-24, 08:36:00,VALID,919.07,VALID,0,VALID,92.4571,VALID,431.721,VALID,22.8996,VALID,359,VALID,0.35766,
2009-04-24, 08:37:00,VALID,919.056,VALID,0,VALID,91.3203,VALID,455.222,VALID,22.8515,VALID,351,VALID,0.802083,
2009-04-24, 08:38:00,VALID,919.063,VALID,0,VALID,92.1557,VALID,408.746,VALID,22.7148,VALID,15,VALID,1.12147,
2009-04-24, 08:39:00,VALID,919.053,VALID,0,VALID,92.2002,VALID,370.148,VALID,22.6888,VALID,25,VALID,0.100818,
2009-04-24, 08:40:00,VALID,919.06,VALID,0,VALID,92.4736,VALID,489.914,VALID,22.6401,VALID,18,VALID,0.466332,
2009-04-24, 08:41:00,VALID,919.073,VALID,0,VALID,93.6384,VALID,444.728,VALID,22.7603,VALID,21,VALID,0.679142,
2009-04-24, 08:42:00,VALID,919.071,VALID,0,VALID,93.6931,VALID,377.297,VALID,22.8807,VALID,22,VALID,0.37832,
2009-04-24, 08:43:00,VALID,919.078,VALID,0,VALID,92.714,VALID,320.717,VALID,22.8547,VALID,14,VALID,0.389436,
2009-04-24, 08:44:00,VALID,919.066,VALID,0,VALID,93.2518,VALID,391.544,VALID,22.9232,VALID,27,VALID,0.425409,
2009-04-24, 08:45:00,VALID,919.053,VALID,0,VALID,92.1112,VALID,426.491,VALID,22.8677,VALID,16,VALID,1.3432,
2009-04-24, 08:46:00,VALID,919.05,VALID,0,VALID,92.6059,VALID,417.559,VALID,22.8447,VALID,25,VALID,1.17422,
2009-04-24, 08:47:00,VALID,919.045,VALID,0,VALID,92.4088,VALID,424.674,VALID,22.8734,VALID,360,VALID,0.238636,
2009-04-24, 08:48:00,VALID,919.047,VALID,0,VALID,92.4711,VALID,433.232,VALID,22.9277,VALID,11,VALID,0.553597,
2009-04-24, 08:49:00,VALID,919.048,VALID,0,VALID,91.862,VALID,449.126,VALID,22.9897,VALID,4,VALID,0.17081,
2009-04-24, 08:50:00,VALID,919.047,VALID,0,VALID,91.5543,VALID,461.454,VALID,22.9859,VALID,29,VALID,1.55816,
2009-04-24, 08:51:00,VALID,919.063,VALID,0,VALID,92.6199,VALID,468.858,VALID,22.9797,VALID,13,VALID,0.61756,
2009-04-24, 08:52:00,VALID,919.069,VALID,0,VALID,91.9396,VALID,468.009,VALID,23.0724,VALID,345,VALID,0.0505087,
2009-04-24, 08:53:00,VALID,919.095,VALID,0,VALID,91.6191,VALID,394.363,VALID,23.0405,VALID,324,VALID,0.00218023,
2009-04-24, 08:54:00,VALID,919.104,VALID,0,VALID,91.2694,VALID,449.618,VALID,23.0535,VALID,314,VALID,0.000400641,
2009-04-24, 08:55:00,VALID,919.081,VALID,0,VALID,90.7531,VALID,423.723,VALID,23.0756,VALID,286,VALID,0.0942827,
2009-04-24, 08:56:00,VALID,919.075,VALID,0,VALID,91.2936,VALID,389.15,VALID,23.1052,VALID,260,VALID,0,
2009-04-24, 08:57:00,VALID,919.089,VALID,0,VALID,92.0464,VALID,296.621,VALID,23.2061,VALID,359,VALID,0.126272,
2009-04-24, 08:58:00,VALID,919.078,VALID,0,VALID,91.3889,VALID,456.156,VALID,23.2871,VALID,349,VALID,0.00451389,
2009-04-24, 08:59:00,VALID,919.068,VALID,0,VALID,91.4589,VALID,529.734,VALID,23.368,VALID,21,VALID,0.451637,
2009-04-24, 09:00:00,VALID,919.058,VALID,0,VALID,90.8879,VALID,529.768,VALID,23.4885,VALID,348,VALID,0.521307,
2009-04-24, 09:01:00,VALID,919.064,VALID,0,VALID,90.8829,VALID,506.878,VALID,23.4395,VALID,23,VALID,1.45703,
2009-04-24, 09:02:00,VALID,919.07,VALID,0,VALID,89.404,VALID,471.439,VALID,23.3618,VALID,32,VALID,1.40438,
2009-04-24, 09:03:00,VALID,919.072,VALID,0,VALID,90.3043,VALID,497.114,VALID,23.2838,VALID,32,VALID,0.93936,
2009-04-24, 09:04:00,VALID,919.093,VALID,0,VALID,91.4843,VALID,537.07,VALID,23.4634,VALID,33,VALID,0.461319,
2009-04-24, 09:05:00,VALID,919.105,VALID,0,VALID,91.7666,VALID,524.674,VALID,23.6805,VALID,38,VALID,0.540551,
2009-04-24, 09:06:00,VALID,919.108,VALID,0,VALID,91.8734,VALID,483.92,VALID,23.9498,VALID,50,VALID,0.500381,
2009-04-24, 09:07:00,VALID,919.127,VALID,0,VALID,90.5789,VALID,418.391,VALID,24.2115,VALID,359,VALID,0.401042,
2009-04-24, 09:08:00,VALID,919.131,VALID,0,VALID,89.9317,VALID,430.6,VALID,24.4198,VALID,35,VALID,0.281068,
2009-04-24, 09:09:00,VALID,919.128,VALID,0,VALID,87.3389,VALID,283.631,VALID,24.4786,VALID,291,VALID,0.235352,
2009-04-24, 09:10:00,VALID,919.135,VALID,0,VALID,85.8231,VALID,343.183,VALID,24.3775,VALID,259,VALID,0.208031,
2009-04-24, 09:11:00,VALID,919.156,VALID,0,VALID,86.7107,VALID,247.767,VALID,24.2638,VALID,334,VALID,0.00218023,
2009-04-24, 09:12:00,VALID,919.148,VALID,0,VALID,87.5093,VALID,278.52,VALID,24.1634,VALID,19,VALID,0.0685764,
2009-04-24, 09:13:00,VALID,919.153,VALID,0,VALID,87.5093,VALID,549.466,VALID,24.0272,VALID,72,VALID,0,
2009-04-24, 09:14:00,VALID,919.132,VALID,0,VALID,86.9167,VALID,450.858,VALID,23.9616,VALID,42,VALID,0.0012429,
2009-04-24, 09:15:00,VALID,919.11,VALID,0,VALID,86.8137,VALID,501.614,VALID,24.0568,VALID,2,VALID,0,
2009-04-24, 09:16:00,VALID,919.103,VALID,0,VALID,85.5942,VALID,571.116,VALID,24.1474,VALID,330,VALID,0.293786,
2009-04-24, 09:17:00,VALID,919.119,VALID,0,VALID,85.6248,VALID,342.401,VALID,24.1997,VALID,1,VALID,0.473028,
2009-04-24, 09:18:00,VALID,919.114,VALID,0,VALID,86.3483,VALID,497.555,VALID,24.0984,VALID,20,VALID,1.05687,
2009-04-24, 09:19:00,VALID,919.112,VALID,0,VALID,87.5029,VALID,586.314,VALID,24.1829,VALID,306,VALID,0.189787,
2009-04-24, 09:20:00,VALID,919.142,VALID,0,VALID,87.0223,VALID,552.947,VALID,24.3642,VALID,234,VALID,0,
2009-04-24, 09:21:00,VALID,919.152,VALID,0,VALID,86.9765,VALID,590.967,VALID,24.6254,VALID,38,VALID,0.185156,
2009-04-24, 09:22:00,VALID,919.173,VALID,0,VALID,85.8104,VALID,589.286,VALID,24.8071,VALID,49,VALID,0.00688244,
2009-04-24, 09:23:00,VALID,919.163,VALID,0,VALID,84.3557,VALID,530.396,VALID,25.0001,VALID,286,VALID,0.152716,
2009-04-24, 09:24:00,VALID,919.164,VALID,0,VALID,82.8908,VALID,325.353,VALID,25.0736,VALID,28,VALID,0.464757,
2009-04-24, 09:25:00,VALID,919.147,VALID,0,VALID,83.4834,VALID,276.329,VALID,25.0285,VALID,352,VALID,0.479651,
2009-04-24, 09:26:00,VALID,919.147,VALID,0,VALID,83.2876,VALID,298.031,VALID,25.1065,VALID,25,VALID,0.040625,
2009-04-24, 09:27:00,VALID,919.159,VALID,0,VALID,82.6772,VALID,340.551,VALID,24.9531,VALID,21,VALID,0.246366,
2009-04-24, 09:28:00,VALID,919.156,VALID,0,VALID,82.7853,VALID,454.509,VALID,24.7619,VALID,17,VALID,0.384115,
2009-04-24, 09:29:00,VALID,919.171,VALID,0,VALID,82.475,VALID,465.275,VALID,24.6612,VALID,273,VALID,0.204613,
2009-04-24, 09:30:00,VALID,919.163,VALID,0,VALID,84.4282,VALID,473.527,VALID,24.6514,VALID,10,VALID,1.3452,
2009-04-24, 09:31:00,VALID,919.16,VALID,0,VALID,84.1319,VALID,391.901,VALID,24.6774,VALID,353,VALID,0.738791,
2009-04-24, 09:32:00,VALID,919.149,VALID,0,VALID,84.165,VALID,485.074,VALID,24.7168,VALID,5,VALID,0.24349,
2009-04-24, 09:33:00,VALID,919.119,VALID,0,VALID,84.4091,VALID,505.451,VALID,24.5832,VALID,34,VALID,0.2258,
2009-04-24, 09:34:00,VALID,919.118,VALID,0,VALID,85.3412,VALID,517.678,VALID,24.502,VALID,25,VALID,0.490057,
2009-04-24, 09:35:00,VALID,919.097,VALID,0,VALID,84.0861,VALID,489.337,VALID,24.5413,VALID,13,VALID,0.161458,
2009-04-24, 09:36:00,VALID,919.075,VALID,0,VALID,84.2158,VALID,484.09,VALID,24.629,VALID,15,VALID,0.092731,
2009-04-24, 09:37:00,VALID,919.057,VALID,0,VALID,83.0549,VALID,477.501,VALID,24.601,VALID,35,VALID,0.315995,
2009-04-24, 09:38:00,VALID,919.072,VALID,0,VALID,83.7326,VALID,462.66,VALID,24.4769,VALID,28,VALID,0.452217,
2009-04-24, 09:39:00,VALID,919.068,VALID,0,VALID,82.9684,VALID,451.962,VALID,24.432,VALID,22,VALID,0.339208,
2009-04-24, 09:40:00,VALID,919.065,VALID,0,VALID,84.4714,VALID,458.313,VALID,24.4879,VALID,50,VALID,0.583507,
2009-04-24, 09:41:00,VALID,919.088,VALID,0,VALID,85.0716,VALID,477.773,VALID,24.6566,VALID,15,VALID,0.0327744,
2009-04-24, 09:42:00,VALID,919.094,VALID,0,VALID,84.0785,VALID,494.312,VALID,24.7801,VALID,22,VALID,0.018532,
2009-04-24, 09:43:00,VALID,919.105,VALID,0,VALID,84.0582,VALID,504.483,VALID,24.7703,VALID,25,VALID,0,
2009-04-24, 09:44:00,VALID,919.113,VALID,0,VALID,84.3544,VALID,511.174,VALID,24.755,VALID,18,VALID,0.0525073,
2009-04-24, 09:45:00,VALID,919.089,VALID,0,VALID,83.0994,VALID,511.548,VALID,24.7674,VALID,23,VALID,0.890625,
2009-04-24, 09:46:00,VALID,919.079,VALID,0,VALID,84.1065,VALID,503.787,VALID,24.8714,VALID,30,VALID,0.758929,
2009-04-24, 09:47:00,VALID,919.086,VALID,0,VALID,82.3707,VALID,495.161,VALID,24.9852,VALID,16,VALID,0.505996,
2009-04-24, 09:48:00,VALID,919.074,VALID,0,VALID,81.6345,VALID,501.665,VALID,24.9653,VALID,15,VALID,0.00223214,
2009-04-24, 09:49:00,VALID,919.053,VALID,0,VALID,82.2334,VALID,505.417,VALID,24.8516,VALID,26,VALID,0.0109012,
2009-04-24, 09:50:00,VALID,919.049,VALID,0,VALID,82.9569,VALID,507.88,VALID,24.8616,VALID,359,VALID,0.0712003,
2009-04-24, 09:51:00,VALID,919.036,VALID,0,VALID,81.6421,VALID,505.825,VALID,24.8906,VALID,10,VALID,0.0184832,
2009-04-24, 09:52:00,VALID,919.009,VALID,0,VALID,81.3929,VALID,506.046,VALID,24.9475,VALID,3,VALID,0.156944,
2009-04-24, 09:53:00,VALID,918.994,VALID,0,VALID,79.7805,VALID,503.923,VALID,24.9183,VALID,14,VALID,0.721112,
2009-04-24, 09:54:00,VALID,918.977,VALID,0,VALID,80.5676,VALID,506.131,VALID,24.9215,VALID,1,VALID,0.864211,
2009-04-24, 09:55:00,VALID,918.984,VALID,0,VALID,80.8562,VALID,504.348,VALID,24.8864,VALID,12,VALID,1.10865,
2009-04-24, 09:56:00,VALID,918.991,VALID,0,VALID,82.3237,VALID,503.77,VALID,24.9446,VALID,24,VALID,1.19531,
2009-04-24, 09:57:00,VALID,919.003,VALID,0,VALID,82.007,VALID,512.295,VALID,25.0483,VALID,1,VALID,0.818004,
2009-04-24, 09:58:00,VALID,918.991,VALID,0,VALID,79.0595,VALID,518.934,VALID,24.9537,VALID,323,VALID,0.523628,
2009-04-24, 09:59:00,VALID,918.977,VALID,0,VALID,80.0857,VALID,518.153,VALID,24.954,VALID,21,VALID,0.546317,
2009-04-24, 10:00:00,VALID,918.957,VALID,0,VALID,81.8265,VALID,511.581,VALID,24.9615,VALID,27,VALID,0.560292,
2009-04-24, 10:01:00,VALID,918.944,VALID,0,VALID,81.7413,VALID,486.348,VALID,24.965,VALID,27,VALID,0.551258,
2009-04-24, 10:02:00,VALID,918.924,VALID,0,VALID,81.6167,VALID,487.588,VALID,24.9966,VALID,19,VALID,0.908482,
2009-04-24, 10:03:00,VALID,918.925,VALID,0,VALID,81.2377,VALID,515.351,VALID,24.8373,VALID,16,VALID,1.02035,
2009-04-24, 10:04:00,VALID,918.916,VALID,0,VALID,80.6464,VALID,537.749,VALID,24.7496,VALID,14,VALID,0.686592,
2009-04-24, 10:05:00,VALID,918.892,VALID,0,VALID,80.6007,VALID,538.955,VALID,24.7233,VALID,6,VALID,0.335938,
2009-04-24, 10:06:00,VALID,918.879,VALID,0,VALID,81.5022,VALID,534.336,VALID,24.6553,VALID,18,VALID,0.459077,
2009-04-24, 10:07:00,VALID,918.864,VALID,0,VALID,81.6052,VALID,542.385,VALID,24.6556,VALID,21,VALID,0.498512,
2009-04-24, 10:08:00,VALID,918.835,VALID,0,VALID,80.799,VALID,543.387,VALID,24.5841,VALID,17,VALID,0.181108,
2009-04-24, 10:09:00,VALID,918.79,VALID,0,VALID,82.0821,VALID,555.205,VALID,24.6979,VALID,3,VALID,0,
2009-04-24, 10:10:00,VALID,918.765,VALID,0,VALID,81.9753,VALID,566.701,VALID,24.8929,VALID,11,VALID,0.0579861,
2009-04-24, 10:11:00,VALID,918.734,VALID,0,VALID,79.7372,VALID,560.316,VALID,24.9316,VALID,323,VALID,0.995617,
2009-04-24, 10:12:00,VALID,918.711,VALID,0,VALID,79.1027,VALID,564.069,VALID,24.733,VALID,5,VALID,0.863372,
2009-04-24, 10:13:00,VALID,918.706,VALID,0,VALID,79.6724,VALID,545.883,VALID,24.64,VALID,23,VALID,0.572396,
2009-04-24, 10:14:00,VALID,918.685,VALID,0,VALID,81.2098,VALID,523.638,VALID,24.6361,VALID,41,VALID,0.195117,
2009-04-24, 10:15:00,VALID,918.683,VALID,0,VALID,81.6713,VALID,536.764,VALID,24.851,VALID,13,VALID,0.286644,
2009-04-24, 10:16:00,VALID,918.687,VALID,0,VALID,81.8201,VALID,555.188,VALID,25.0525,VALID,10,VALID,0.240234,
2009-04-24, 10:17:00,VALID,918.668,VALID,0,VALID,80.7965,VALID,591.256,VALID,25.2247,VALID,228,VALID,0,
2009-04-24, 10:18:00,VALID,918.637,VALID,0,VALID,79.1116,VALID,624.793,VALID,25.3181,VALID,24,VALID,0.741655,
2009-04-24, 10:19:00,VALID,918.602,VALID,0,VALID,78.6373,VALID,634.625,VALID,25.2508,VALID,23,VALID,0.31064,
2009-04-24, 10:20:00,VALID,918.58,VALID,0,VALID,79.1993,VALID,642.504,VALID,25.2504,VALID,41,VALID,0.242773,
2009-04-24, 10:21:00,VALID,918.581,VALID,0,VALID,80.4633,VALID,640.466,VALID,25.449,VALID,2,VALID,0,
2009-04-24, 10:22:00,VALID,918.543,VALID,0,VALID,78.7276,VALID,653.473,VALID,25.5667,VALID,24,VALID,0.210737,
2009-04-24, 10:23:00,VALID,918.549,VALID,0,VALID,77.3161,VALID,665.649,VALID,25.5732,VALID,23,VALID,0.384673,
2009-04-24, 10:24:00,VALID,918.552,VALID,0,VALID,77.0402,VALID,649.347,VALID,25.5927,VALID,355,VALID,0.218378,
2009-04-24, 10:25:00,VALID,918.529,VALID,0,VALID,75.5371,VALID,606.827,VALID,25.713,VALID,308,VALID,0.270597,
2009-04-24, 10:26:00,VALID,918.517,VALID,0,VALID,75.2065,VALID,587.299,VALID,25.8366,VALID,265,VALID,0,
2009-04-24, 10:27:00,VALID,918.524,VALID,0,VALID,76.1475,VALID,625.795,VALID,26.0121,VALID,3,VALID,0.000190549,
2009-04-24, 10:28:00,VALID,918.521,VALID,0,VALID,76.37,VALID,608.44,VALID,26.1455,VALID,19,VALID,0.0704985,
2009-04-24, 10:29:00,VALID,918.513,VALID,0,VALID,77.0669,VALID,570.556,VALID,26.2632,VALID,20,VALID,0.426054,
2009-04-24, 10:30:00,VALID,918.496,VALID,0,VALID,76.2174,VALID,576.278,VALID,26.1129,VALID,26,VALID,0.583651,
2009-04-24, 10:31:00,VALID,918.481,VALID,0,VALID,77.1063,VALID,613.348,VALID,25.9247,VALID,26,VALID,0.836496,
2009-04-24, 10:32:00,VALID,918.496,VALID,0,VALID,78.6564,VALID,619.427,VALID,25.9774,VALID,101,VALID,0.0234375,
2009-04-24, 10:33:00,VALID,918.487,VALID,0,VALID,77.3212,VALID,643.947,VALID,26.1266,VALID,231,VALID,0,
2009-04-24, 10:34:00,VALID,918.519,VALID,0,VALID,74.7843,VALID,654.951,VALID,26.2209,VALID,281,VALID,0,
2009-04-24, 10:35:00,VALID,918.515,VALID,0,VALID,74.9407,VALID,668.79,VALID,26.1916,VALID,326,VALID,0.0577446,
2009-04-24, 10:36:00,VALID,918.521,VALID,0,VALID,76.3115,VALID,645.526,VALID,26.1204,VALID,354,VALID,0.307292,
2009-04-24, 10:37:00,VALID,918.492,VALID,0,VALID,74.9077,VALID,674.699,VALID,26.1133,VALID,290,VALID,0.177782,
2009-04-24, 10:38:00,VALID,918.486,VALID,0,VALID,75.0374,VALID,723.315,VALID,26.2252,VALID,270,VALID,0.611111,
2009-04-24, 10:39:00,VALID,918.475,VALID,0,VALID,75.3006,VALID,783.156,VALID,26.2895,VALID,289,VALID,0.306682,
2009-04-24, 10:40:00,VALID,918.457,VALID,0,VALID,74.1587,VALID,606.419,VALID,26.2599,VALID,293,VALID,0.00260417,